Time,TemperatureF,DewpointF,PressureIn,WindDirection,WindDirectionDegrees,WindSpeedMPH,WindSpeedGustMPH,Humidity,HourlyPrecipIn,Conditions,Clouds,dailyrainin,SoftwareType,DateUTC
2013-08-14 00:01:00,84.9,70.9,29.95,SE,132,0.0,9.0,63,0.00,,CLR,0.00,VWS V14.01,2013-08-14 05:01:00,
2013-08-14 00:06:00,84.7,71.6,29.95,SSE,153,2.0,9.0,65,0.00,,CLR,0.00,VWS V14.01,2013-08-14 05:06:00,
2013-08-14 00:11:00,84.3,71.7,29.95,SSE,151,0.0,3.0,66,0.00,,CLR,0.00,VWS V14.01,2013-08-14 05:11:00,
2013-08-14 00:16:00,84.3,71.7,29.96,SE,146,0.0,7.0,66,0.00,,CLR,0.00,VWS V14.01,2013-08-14 05:16:00,
2013-08-14 00:21:00,84.1,71.5,29.96,SSE,157,0.0,0.0,66,0.00,,CLR,0.00,VWS V14.01,2013-08-14 05:21:00,
2013-08-14 00:26:00,84.0,71.9,29.96,SE,138,0.0,6.0,67,0.00,,CLR,0.00,VWS V14.01,2013-08-14 05:26:00,
2013-08-14 00:31:00,84.0,71.9,29.96,South,177,0.0,0.0,67,0.00,,CLR,0.00,VWS V14.01,2013-08-14 05:31:00,
2013-08-14 00:36:00,83.8,71.7,29.96,SE,136,0.0,3.0,67,0.00,,CLR,0.00,VWS V14.01,2013-08-14 05:36:00,
2013-08-14 00:41:00,83.6,71.5,29.96,SE,141,0.0,0.0,67,0.00,,CLR,0.00,VWS V14.01,2013-08-14 05:41:00,
2013-08-14 00:46:00,83.4,71.3,29.96,SSW,202,0.0,0.0,67,0.00,,CLR,0.00,VWS V14.01,2013-08-14 05:46:00,
2013-08-14 00:51:00,83.4,71.7,29.96,SSE,151,0.0,0.0,68,0.00,,CLR,0.00,VWS V14.01,2013-08-14 05:51:00,
2013-08-14 00:56:00,83.2,71.6,29.96,SSE,148,0.0,0.0,68,0.00,,CLR,0.00,VWS V14.01,2013-08-14 05:56:00,
2013-08-14 01:01:00,83.0,71.4,29.96,SSE,157,0.0,0.0,68,0.00,,CLR,0.00,VWS V14.01,2013-08-14 06:01:00,
2013-08-14 01:06:00,82.8,71.2,29.96,SE,140,0.0,0.0,68,0.00,,CLR,0.00,VWS V14.01,2013-08-14 06:06:00,
2013-08-14 01:11:00,82.8,71.6,29.96,South,174,2.0,2.0,69,0.00,,CLR,0.00,VWS V14.01,2013-08-14 06:11:00,
2013-08-14 01:16:00,82.6,71.4,29.96,South,170,0.0,7.0,69,0.00,,CLR,0.00,VWS V14.01,2013-08-14 06:16:00,
2013-08-14 01:21:00,82.4,71.2,29.96,South,173,0.0,7.0,69,0.00,,CLR,0.00,VWS V14.01,2013-08-14 06:21:00,
2013-08-14 01:26:00,82.2,71.4,29.96,South,180,0.0,7.0,70,0.00,,CLR,0.00,VWS V14.01,2013-08-14 06:26:00,
2013-08-14 01:31:00,82.2,71.4,29.95,South,178,0.0,7.0,70,0.00,,CLR,0.00,VWS V14.01,2013-08-14 06:31:00,
2013-08-14 01:36:00,82.0,71.3,29.95,SSE,153,0.0,4.0,70,0.00,,CLR,0.00,VWS V14.01,2013-08-14 06:36:00,
2013-08-14 01:41:00,82.0,71.3,29.95,South,175,0.0,6.0,70,0.00,,CLR,0.00,VWS V14.01,2013-08-14 06:41:00,
2013-08-14 01:46:00,81.8,71.5,29.94,South,184,3.0,6.0,71,0.00,,CLR,0.00,VWS V14.01,2013-08-14 06:46:00,
2013-08-14 01:51:00,81.8,71.5,29.94,SSE,167,0.0,6.0,71,0.00,,CLR,0.00,VWS V14.01,2013-08-14 06:51:00,
2013-08-14 01:56:00,81.6,71.3,29.94,South,184,0.0,0.0,71,0.00,,CLR,0.00,VWS V14.01,2013-08-14 06:56:00,
2013-08-14 02:01:00,81.4,71.5,29.94,South,184,0.0,3.0,72,0.00,,CLR,0.00,VWS V14.01,2013-08-14 07:01:00,
2013-08-14 02:06:00,81.4,71.5,29.94,South,175,0.0,0.0,72,0.00,,CLR,0.00,VWS V14.01,2013-08-14 07:06:00,
2013-08-14 02:11:00,81.2,71.3,29.94,South,178,0.0,4.0,72,0.00,,CLR,0.00,VWS V14.01,2013-08-14 07:11:00,
2013-08-14 02:16:00,81.1,71.6,29.94,South,175,0.0,0.0,73,0.00,,CLR,0.00,VWS V14.01,2013-08-14 07:16:00,
2013-08-14 02:21:00,81.1,71.6,29.94,SSE,165,0.0,2.0,73,0.00,,CLR,0.00,VWS V14.01,2013-08-14 07:21:00,
2013-08-14 02:26:00,81.1,71.6,29.94,SSE,158,0.0,0.0,73,0.00,,CLR,0.00,VWS V14.01,2013-08-14 07:26:00,
2013-08-14 02:31:00,80.9,71.8,29.94,South,178,2.0,5.0,74,0.00,,CLR,0.00,VWS V14.01,2013-08-14 07:31:00,
2013-08-14 02:36:00,80.7,71.7,29.94,South,180,0.0,5.0,74,0.00,,CLR,0.00,VWS V14.01,2013-08-14 07:36:00,
2013-08-14 02:41:00,80.5,71.8,29.94,South,180,0.0,5.0,75,0.00,,CLR,0.00,VWS V14.01,2013-08-14 07:41:00,
2013-08-14 02:46:00,80.5,71.8,29.94,SE,138,0.0,0.0,75,0.00,,CLR,0.00,VWS V14.01,2013-08-14 07:46:00,
2013-08-14 02:51:00,80.3,71.7,29.94,SE,138,0.0,0.0,75,0.00,,CLR,0.00,VWS V14.01,2013-08-14 07:51:00,
2013-08-14 02:56:00,80.3,72.1,29.94,South,172,0.0,3.0,76,0.00,,CLR,0.00,VWS V14.01,2013-08-14 07:56:00,
2013-08-14 03:01:00,80.3,72.1,29.94,South,178,0.0,3.0,76,0.00,,CLR,0.00,VWS V14.01,2013-08-14 08:01:00,
2013-08-14 03:06:00,80.3,72.1,29.94,South,178,0.0,0.0,76,0.00,,CLR,0.00,VWS V14.01,2013-08-14 08:06:00,
2013-08-14 03:11:00,80.1,71.9,29.94,SSE,158,0.0,0.0,76,0.00,,CLR,0.00,VWS V14.01,2013-08-14 08:11:00,
2013-08-14 03:16:00,79.9,72.1,29.94,South,176,0.0,2.0,77,0.00,,CLR,0.00,VWS V14.01,2013-08-14 08:16:00,
2013-08-14 03:21:00,79.9,72.1,29.94,South,176,0.0,2.0,77,0.00,,CLR,0.00,VWS V14.01,2013-08-14 08:21:00,
2013-08-14 03:26:00,79.8,72.3,29.94,South,176,0.0,0.0,78,0.00,,CLR,0.00,VWS V14.01,2013-08-14 08:26:00,
2013-08-14 03:31:00,79.8,72.3,29.94,South,176,0.0,0.0,78,0.00,,CLR,0.00,VWS V14.01,2013-08-14 08:31:00,
2013-08-14 03:36:00,79.6,72.1,29.94,South,176,0.0,0.0,78,0.00,,CLR,0.00,VWS V14.01,2013-08-14 08:36:00,
2013-08-14 03:41:00,79.6,72.1,29.94,South,176,0.0,0.0,78,0.00,,CLR,0.00,VWS V14.01,2013-08-14 08:41:00,
2013-08-14 03:46:00,79.6,72.1,29.95,South,176,0.0,0.0,78,0.00,,CLR,0.00,VWS V14.01,2013-08-14 08:46:00,
2013-08-14 03:51:00,79.6,72.1,29.95,South,176,0.0,0.0,78,0.00,,CLR,0.00,VWS V14.01,2013-08-14 08:51:00,
2013-08-14 03:56:00,79.6,72.1,29.95,South,176,0.0,0.0,78,0.00,,CLR,0.00,VWS V14.01,2013-08-14 08:56:00,
2013-08-14 04:01:00,79.6,72.1,29.95,South,176,0.0,0.0,78,0.00,,CLR,0.00,VWS V14.01,2013-08-14 09:01:00,
2013-08-14 04:06:00,79.4,71.9,29.95,South,176,0.0,0.0,78,0.00,,CLR,0.00,VWS V14.01,2013-08-14 09:06:00,
2013-08-14 04:11:00,79.4,72.3,29.95,South,176,0.0,0.0,79,0.00,,CLR,0.00,VWS V14.01,2013-08-14 09:11:00,
2013-08-14 04:16:00,79.2,72.1,29.95,South,176,0.0,0.0,79,0.00,,CLR,0.00,VWS V14.01,2013-08-14 09:16:00,
2013-08-14 04:21:00,79.2,72.1,29.95,South,176,0.0,0.0,79,0.00,,CLR,0.00,VWS V14.01,2013-08-14 09:21:00,
2013-08-14 04:26:00,79.0,71.9,29.95,South,176,0.0,0.0,79,0.00,,CLR,0.00,VWS V14.01,2013-08-14 09:26:00,
2013-08-14 04:31:00,78.8,71.7,29.96,South,176,0.0,0.0,79,0.00,,CLR,0.00,VWS V14.01,2013-08-14 09:31:00,
2013-08-14 04:36:00,78.8,71.7,29.96,South,176,0.0,0.0,79,0.00,,CLR,0.00,VWS V14.01,2013-08-14 09:36:00,
2013-08-14 04:41:00,78.8,71.7,29.96,South,176,0.0,0.0,79,0.00,,CLR,0.00,VWS V14.01,2013-08-14 09:41:00,
2013-08-14 04:46:00,78.8,71.7,29.95,South,176,0.0,0.0,79,0.00,,CLR,0.00,VWS V14.01,2013-08-14 09:46:00,
2013-08-14 04:51:00,78.6,71.9,29.95,South,176,0.0,0.0,80,0.00,,CLR,0.00,VWS V14.01,2013-08-14 09:51:00,
2013-08-14 04:56:00,78.5,71.8,29.95,South,176,0.0,0.0,80,0.00,,CLR,0.00,VWS V14.01,2013-08-14 09:56:00,
2013-08-14 05:01:00,78.3,71.6,29.95,South,176,0.0,0.0,80,0.00,,CLR,0.00,VWS V14.01,2013-08-14 10:01:00,
2013-08-14 05:06:00,78.3,72.0,29.95,South,176,0.0,0.0,81,0.00,,CLR,0.00,VWS V14.01,2013-08-14 10:06:00,
2013-08-14 05:11:00,78.1,71.8,29.95,South,176,0.0,0.0,81,0.00,,CLR,0.00,VWS V14.01,2013-08-14 10:11:00,
2013-08-14 05:16:00,78.1,71.8,29.95,South,176,0.0,0.0,81,0.00,,CLR,0.00,VWS V14.01,2013-08-14 10:16:00,
2013-08-14 05:21:00,77.9,71.6,29.95,South,176,0.0,0.0,81,0.00,,CLR,0.00,VWS V14.01,2013-08-14 10:21:00,
2013-08-14 05:26:00,77.9,71.6,29.95,South,176,0.0,0.0,81,0.00,,CLR,0.00,VWS V14.01,2013-08-14 10:26:00,
2013-08-14 05:31:00,77.9,71.6,29.96,South,176,0.0,0.0,81,0.00,,CLR,0.00,VWS V14.01,2013-08-14 10:31:00,
2013-08-14 05:36:00,77.9,71.6,29.96,South,176,0.0,0.0,81,0.00,,CLR,0.00,VWS V14.01,2013-08-14 10:36:00,
2013-08-14 05:41:00,77.9,71.6,29.96,South,176,0.0,0.0,81,0.00,,CLR,0.00,VWS V14.01,2013-08-14 10:41:00,
2013-08-14 05:46:00,77.9,71.6,29.96,South,176,0.0,0.0,81,0.00,,CLR,0.00,VWS V14.01,2013-08-14 10:46:00,
2013-08-14 05:51:00,77.7,71.4,29.96,South,176,0.0,0.0,81,0.00,,CLR,0.00,VWS V14.01,2013-08-14 10:51:00,
2013-08-14 05:56:00,77.7,71.4,29.96,South,176,0.0,0.0,81,0.00,,CLR,0.00,VWS V14.01,2013-08-14 10:56:00,
2013-08-14 06:01:00,77.7,71.8,29.96,South,176,0.0,0.0,82,0.00,,CLR,0.00,VWS V14.01,2013-08-14 11:01:00,
2013-08-14 06:06:00,77.7,71.8,29.96,South,176,0.0,0.0,82,0.00,,CLR,0.00,VWS V14.01,2013-08-14 11:06:00,
2013-08-14 06:11:00,77.7,71.8,29.96,South,176,0.0,0.0,82,0.00,,CLR,0.00,VWS V14.01,2013-08-14 11:11:00,
2013-08-14 06:16:00,77.7,71.8,29.96,South,176,0.0,0.0,82,0.00,,CLR,0.00,VWS V14.01,2013-08-14 11:16:00,
2013-08-14 06:21:00,77.6,71.7,29.96,South,176,0.0,0.0,82,0.00,,CLR,0.00,VWS V14.01,2013-08-14 11:21:00,
2013-08-14 06:26:00,77.6,71.7,29.96,South,176,0.0,0.0,82,0.00,,CLR,0.00,VWS V14.01,2013-08-14 11:26:00,
2013-08-14 06:31:00,77.4,71.8,29.97,South,176,0.0,0.0,83,0.00,,CLR,0.00,VWS V14.01,2013-08-14 11:31:00,
2013-08-14 06:36:00,77.4,71.8,29.97,South,176,0.0,2.0,83,0.00,,CLR,0.00,VWS V14.01,2013-08-14 11:36:00,
2013-08-14 06:41:00,77.4,71.8,29.97,South,176,0.0,2.0,83,0.00,,CLR,0.00,VWS V14.01,2013-08-14 11:41:00,
2013-08-14 06:46:00,77.4,71.8,29.97,South,176,0.0,0.0,83,0.00,,CLR,0.00,VWS V14.01,2013-08-14 11:46:00,
2013-08-14 06:51:00,77.2,71.6,29.97,South,176,0.0,0.0,83,0.00,,CLR,0.00,VWS V14.01,2013-08-14 11:51:00,
2013-08-14 06:56:00,77.2,71.6,29.97,South,176,0.0,0.0,83,0.00,,CLR,0.00,VWS V14.01,2013-08-14 11:56:00,
2013-08-14 07:01:00,77.2,72.0,29.98,South,176,0.0,0.0,84,0.00,,CLR,0.00,VWS V14.01,2013-08-14 12:01:00,
2013-08-14 07:06:00,77.2,72.0,29.98,South,176,0.0,0.0,84,0.00,,CLR,0.00,VWS V14.01,2013-08-14 12:06:00,
2013-08-14 07:11:00,77.2,72.0,29.98,South,176,0.0,0.0,84,0.00,,CLR,0.00,VWS V14.01,2013-08-14 12:11:00,
2013-08-14 07:16:00,77.2,72.0,29.98,South,176,0.0,0.0,84,0.00,,CLR,0.00,VWS V14.01,2013-08-14 12:16:00,
2013-08-14 07:21:00,77.2,72.0,29.98,South,176,0.0,0.0,84,0.00,,CLR,0.00,VWS V14.01,2013-08-14 12:21:00,
2013-08-14 07:26:00,77.4,72.2,29.98,South,176,0.0,0.0,84,0.00,,CLR,0.00,VWS V14.01,2013-08-14 12:26:00,
2013-08-14 07:31:00,77.4,72.2,29.98,South,177,0.0,2.0,84,0.00,,CLR,0.00,VWS V14.01,2013-08-14 12:31:00,
2013-08-14 07:36:00,77.6,72.4,29.98,South,177,0.0,0.0,84,0.00,,CLR,0.00,VWS V14.01,2013-08-14 12:36:00,
2013-08-14 07:41:00,77.7,72.1,29.98,South,182,0.0,0.0,83,0.00,,CLR,0.00,VWS V14.01,2013-08-14 12:41:00,
2013-08-14 07:46:00,77.9,72.3,29.98,South,182,0.0,0.0,83,0.00,,CLR,0.00,VWS V14.01,2013-08-14 12:46:00,
2013-08-14 07:51:00,78.1,72.5,29.98,South,182,0.0,0.0,83,0.00,,CLR,0.00,VWS V14.01,2013-08-14 12:51:00,
2013-08-14 07:56:00,78.3,72.7,29.98,South,182,0.0,0.0,83,0.00,,CLR,0.00,VWS V14.01,2013-08-14 12:56:00,
2013-08-14 08:01:00,78.6,73.0,29.99,South,182,0.0,0.0,83,0.00,,CLR,0.00,VWS V14.01,2013-08-14 13:01:00,
2013-08-14 08:06:00,78.8,72.8,29.99,South,182,0.0,1.0,82,0.00,,CLR,0.00,VWS V14.01,2013-08-14 13:06:00,
2013-08-14 08:11:00,79.0,73.0,29.99,SSW,198,0.0,4.0,82,0.00,,CLR,0.00,VWS V14.01,2013-08-14 13:11:00,
2013-08-14 08:16:00,79.2,73.2,30.00,SSW,205,0.0,0.0,82,0.00,,CLR,0.00,VWS V14.01,2013-08-14 13:16:00,
2013-08-14 08:21:00,79.4,73.1,30.00,SSW,205,0.0,0.0,81,0.00,,CLR,0.00,VWS V14.01,2013-08-14 13:21:00,
2013-08-14 08:26:00,79.6,73.3,30.00,SSW,205,0.0,0.0,81,0.00,,CLR,0.00,VWS V14.01,2013-08-14 13:26:00,
2013-08-14 08:31:00,79.9,73.2,30.01,SW,224,0.0,3.0,80,0.00,,CLR,0.00,VWS V14.01,2013-08-14 13:31:00,
2013-08-14 08:36:00,80.1,73.0,30.01,SSW,206,0.0,4.0,79,0.00,,CLR,0.00,VWS V14.01,2013-08-14 13:36:00,
2013-08-14 08:41:00,80.3,73.2,30.01,SW,228,0.0,6.0,79,0.00,,CLR,0.00,VWS V14.01,2013-08-14 13:41:00,
2013-08-14 08:46:00,80.5,73.0,30.01,SW,232,0.0,0.0,78,0.00,,CLR,0.00,VWS V14.01,2013-08-14 13:46:00,
2013-08-14 08:51:00,80.7,72.8,30.01,South,169,0.0,0.0,77,0.00,,CLR,0.00,VWS V14.01,2013-08-14 13:51:00,
2013-08-14 08:56:00,81.1,73.2,30.01,WNW,291,2.0,4.0,77,0.00,,CLR,0.00,VWS V14.01,2013-08-14 13:56:00,
2013-08-14 09:01:00,81.2,72.5,30.01,SW,217,0.0,6.0,75,0.00,,CLR,0.00,VWS V14.01,2013-08-14 14:01:00,
2013-08-14 09:06:00,81.6,72.9,30.01,SW,230,2.0,3.0,75,0.00,,CLR,0.00,VWS V14.01,2013-08-14 14:06:00,
2013-08-14 09:11:00,82.0,72.5,30.01,WSW,238,0.0,7.0,73,0.00,,CLR,0.00,VWS V14.01,2013-08-14 14:11:00,
2013-08-14 09:16:00,82.2,72.7,30.01,WSW,257,4.0,8.0,73,0.00,,CLR,0.00,VWS V14.01,2013-08-14 14:16:00,
2013-08-14 09:21:00,82.4,72.5,30.01,South,172,0.0,8.0,72,0.00,,CLR,0.00,VWS V14.01,2013-08-14 14:21:00,
2013-08-14 09:26:00,82.8,72.0,30.01,South,177,0.0,4.0,70,0.00,,CLR,0.00,VWS V14.01,2013-08-14 14:26:00,
2013-08-14 09:31:00,83.2,72.0,30.01,South,170,2.0,11.0,69,0.00,,CLR,0.00,VWS V14.01,2013-08-14 14:31:00,
2013-08-14 09:36:00,83.4,72.2,30.01,SSW,212,0.0,10.0,69,0.00,,CLR,0.00,VWS V14.01,2013-08-14 14:36:00,
2013-08-14 09:41:00,83.8,71.7,30.01,SSW,200,0.0,11.0,67,0.00,,CLR,0.00,VWS V14.01,2013-08-14 14:41:00,
2013-08-14 09:46:00,84.1,72.0,30.02,WSW,243,0.0,6.0,67,0.00,,CLR,0.00,VWS V14.01,2013-08-14 14:46:00,
2013-08-14 09:51:00,84.3,71.7,30.02,SW,230,0.0,6.0,66,0.00,,CLR,0.00,VWS V14.01,2013-08-14 14:51:00,
2013-08-14 09:56:00,84.7,71.6,30.02,West,277,0.0,4.0,65,0.00,,CLR,0.00,VWS V14.01,2013-08-14 14:56:00,
2013-08-14 10:01:00,85.3,71.8,30.02,South,186,0.0,5.0,64,0.00,,CLR,0.00,VWS V14.01,2013-08-14 15:01:00,
2013-08-14 10:06:00,85.5,71.5,30.02,SW,222,4.0,9.0,63,0.00,,CLR,0.00,VWS V14.01,2013-08-14 15:06:00,
2013-08-14 10:11:00,85.5,71.5,30.02,WSW,247,5.0,9.0,63,0.00,,CLR,0.00,VWS V14.01,2013-08-14 15:11:00,
2013-08-14 10:16:00,85.7,71.7,30.01,South,188,0.0,7.0,63,0.00,,CLR,0.00,VWS V14.01,2013-08-14 15:16:00,
2013-08-14 10:21:00,86.1,71.1,30.01,WNW,296,4.0,7.0,61,0.00,,CLR,0.00,VWS V14.01,2013-08-14 15:21:00,
2013-08-14 10:26:00,86.3,71.3,30.01,West,280,5.0,10.0,61,0.00,,CLR,0.00,VWS V14.01,2013-08-14 15:26:00,
2013-08-14 10:31:00,86.5,71.0,30.02,South,183,0.0,10.0,60,0.00,,CLR,0.00,VWS V14.01,2013-08-14 15:31:00,
2013-08-14 10:36:00,87.2,71.1,30.02,SSE,165,0.0,4.0,59,0.00,,CLR,0.00,VWS V14.01,2013-08-14 15:36:00,
2013-08-14 10:41:00,88.0,70.9,30.02,South,171,0.0,7.0,57,0.00,,CLR,0.00,VWS V14.01,2013-08-14 15:41:00,
2013-08-14 10:46:00,88.2,70.5,30.01,SW,233,0.0,9.0,56,0.00,,CLR,0.00,VWS V14.01,2013-08-14 15:46:00,
2013-08-14 10:51:00,88.8,70.6,30.01,WNW,289,0.0,9.0,55,0.00,,CLR,0.00,VWS V14.01,2013-08-14 15:51:00,
2013-08-14 10:56:00,88.6,69.8,30.01,SW,220,3.0,11.0,54,0.00,,CLR,0.00,VWS V14.01,2013-08-14 15:56:00,
2013-08-14 11:01:00,89.3,70.5,30.01,South,191,0.0,11.0,54,0.00,,CLR,0.00,VWS V14.01,2013-08-14 16:01:00,
2013-08-14 11:06:00,89.7,69.8,30.01,SW,221,2.0,8.0,52,0.00,,CLR,0.00,VWS V14.01,2013-08-14 16:06:00,
2013-08-14 11:11:00,89.9,69.9,30.01,SSW,194,0.0,14.0,52,0.00,,CLR,0.00,VWS V14.01,2013-08-14 16:11:00,
2013-08-14 11:16:00,90.3,69.2,30.01,WSW,239,0.0,12.0,50,0.00,,CLR,0.00,VWS V14.01,2013-08-14 16:16:00,
2013-08-14 11:21:00,90.5,68.2,30.01,South,188,3.0,12.0,48,0.00,,CLR,0.00,VWS V14.01,2013-08-14 16:21:00,
2013-08-14 11:26:00,90.5,68.2,30.01,South,172,0.0,15.0,48,0.00,,CLR,0.00,VWS V14.01,2013-08-14 16:26:00,
2013-08-14 11:31:00,91.0,68.6,30.00,SSW,196,10.0,15.0,48,0.00,,CLR,0.00,VWS V14.01,2013-08-14 16:31:00,
2013-08-14 11:36:00,91.0,68.6,30.00,WSW,246,1.0,6.0,48,0.00,,CLR,0.00,VWS V14.01,2013-08-14 16:36:00,
2013-08-14 11:41:00,91.2,68.2,30.00,SSW,200,0.0,9.0,47,0.00,,CLR,0.00,VWS V14.01,2013-08-14 16:41:00,
2013-08-14 11:46:00,91.4,68.3,30.00,WSW,258,1.0,5.0,47,0.00,,CLR,0.00,VWS V14.01,2013-08-14 16:46:00,
2013-08-14 11:51:00,91.6,67.3,30.00,South,186,4.0,7.0,45,0.00,,CLR,0.00,VWS V14.01,2013-08-14 16:51:00,
2013-08-14 11:56:00,92.1,68.4,30.00,South,181,2.0,5.0,46,0.00,,CLR,0.00,VWS V14.01,2013-08-14 16:56:00,
2013-08-14 12:01:00,92.5,68.7,29.99,WNW,296,0.0,5.0,46,0.00,,CLR,0.00,VWS V14.01,2013-08-14 17:01:00,
2013-08-14 12:06:00,93.2,67.4,29.99,SSW,198,0.0,6.0,43,0.00,,CLR,0.00,VWS V14.01,2013-08-14 17:06:00,
2013-08-14 12:11:00,93.6,67.1,29.99,West,265,0.0,10.0,42,0.00,,CLR,0.00,VWS V14.01,2013-08-14 17:11:00,
2013-08-14 12:16:00,93.6,67.1,29.99,West,261,2.0,6.0,42,0.00,,CLR,0.00,VWS V14.01,2013-08-14 17:16:00,
2013-08-14 12:21:00,93.4,66.2,29.99,SW,234,5.0,9.0,41,0.00,,CLR,0.00,VWS V14.01,2013-08-14 17:21:00,
2013-08-14 12:26:00,93.6,67.1,29.99,SW,223,0.0,6.0,42,0.00,,CLR,0.00,VWS V14.01,2013-08-14 17:26:00,
2013-08-14 12:31:00,94.3,67.7,29.99,WSW,251,0.0,6.0,42,0.00,,CLR,0.00,VWS V14.01,2013-08-14 17:31:00,
2013-08-14 12:36:00,94.3,67.0,29.99,West,272,3.0,6.0,41,0.00,,CLR,0.00,VWS V14.01,2013-08-14 17:36:00,
2013-08-14 12:41:00,94.3,67.7,29.99,SW,230,0.0,7.0,42,0.00,,CLR,0.00,VWS V14.01,2013-08-14 17:41:00,
2013-08-14 12:46:00,94.3,67.7,29.99,South,180,4.0,6.0,42,0.00,,CLR,0.00,VWS V14.01,2013-08-14 17:46:00,
2013-08-14 12:51:00,94.9,66.8,29.99,SW,231,0.0,6.0,40,0.00,,CLR,0.00,VWS V14.01,2013-08-14 17:51:00,
2013-08-14 12:56:00,94.9,66.1,29.99,NW,320,0.0,11.0,39,0.00,,CLR,0.00,VWS V14.01,2013-08-14 17:56:00,
2013-08-14 13:01:00,95.9,66.2,29.98,WSW,246,0.0,11.0,38,0.00,,CLR,0.00,VWS V14.01,2013-08-14 18:01:00,
2013-08-14 13:06:00,96.1,65.6,29.98,WNW,287,0.0,6.0,37,0.00,,CLR,0.00,VWS V14.01,2013-08-14 18:06:00,
2013-08-14 13:11:00,96.1,65.6,29.98,SSE,167,2.0,6.0,37,0.00,,CLR,0.00,VWS V14.01,2013-08-14 18:11:00,
2013-08-14 13:16:00,96.8,65.5,29.98,SW,229,0.0,5.0,36,0.00,,CLR,0.00,VWS V14.01,2013-08-14 18:16:00,
2013-08-14 13:22:00,96.8,65.5,29.98,SSW,196,0.0,0.0,36,0.00,,CLR,0.00,VWS V14.01,2013-08-14 18:22:00,
2013-08-14 13:27:00,97.1,65.7,29.98,SSE,153,4.0,9.0,36,0.00,,CLR,0.00,VWS V14.01,2013-08-14 18:27:00,
2013-08-14 13:32:00,97.3,65.1,29.98,SW,230,0.0,0.0,35,0.00,,CLR,0.00,VWS V14.01,2013-08-14 18:32:00,
2013-08-14 13:37:00,97.8,65.5,29.98,SSE,165,0.0,0.0,35,0.00,,CLR,0.00,VWS V14.01,2013-08-14 18:37:00,
2013-08-14 13:42:00,97.8,65.5,29.98,SSE,165,0.0,0.0,35,0.00,,CLR,0.00,VWS V14.01,2013-08-14 18:42:00,
2013-08-14 13:47:00,97.5,64.4,29.96,South,183,0.0,0.0,34,0.00,,CLR,0.00,VWS V14.01,2013-08-14 18:47:00,
2013-08-14 13:52:00,98.0,64.9,29.96,ESE,108,5.0,5.0,34,0.00,,CLR,0.00,VWS V14.01,2013-08-14 18:52:00,
2013-08-14 13:57:00,97.1,64.1,29.96,SSE,156,4.0,7.0,34,0.00,,CLR,0.00,VWS V14.01,2013-08-14 18:57:00,
2013-08-14 14:02:00,97.8,63.8,29.96,SSE,167,2.0,3.0,33,0.00,,CLR,0.00,VWS V14.01,2013-08-14 19:02:00,
2013-08-14 14:07:00,98.2,63.3,29.96,SSW,194,0.0,5.0,32,0.00,,CLR,0.00,VWS V14.01,2013-08-14 19:07:00,
2013-08-14 14:12:00,99.0,63.1,29.96,SSE,157,0.0,3.0,31,0.00,,CLR,0.00,VWS V14.01,2013-08-14 19:12:00,
2013-08-14 14:17:00,99.4,61.5,29.95,South,180,0.0,4.0,29,0.00,,CLR,0.00,VWS V14.01,2013-08-14 19:17:00,
2013-08-14 14:22:00,98.7,61.0,29.95,SSE,157,0.0,0.0,29,0.00,,CLR,0.00,VWS V14.01,2013-08-14 19:22:00,
2013-08-14 14:27:00,99.2,62.3,29.95,ESE,109,3.0,4.0,30,0.00,,CLR,0.00,VWS V14.01,2013-08-14 19:27:00,
2013-08-14 14:32:00,99.9,62.0,29.94,NE,51,0.0,0.0,29,0.00,,CLR,0.00,VWS V14.01,2013-08-14 19:32:00,
2013-08-14 14:37:00,100.4,62.4,29.94,WSW,244,0.0,4.0,29,0.00,,CLR,0.00,VWS V14.01,2013-08-14 19:37:00,
2013-08-14 14:42:00,100.4,62.4,29.94,ESE,109,6.0,6.0,29,0.00,,CLR,0.00,VWS V14.01,2013-08-14 19:42:00,
2013-08-14 14:47:00,101.2,62.1,29.93,SSE,165,7.0,7.0,28,0.00,,CLR,0.00,VWS V14.01,2013-08-14 19:47:00,
2013-08-14 14:52:00,101.0,61.9,29.93,SE,130,0.0,0.0,28,0.00,,CLR,0.00,VWS V14.01,2013-08-14 19:52:00,
2013-08-14 14:58:00,101.0,60.9,29.93,SSW,192,0.0,6.0,27,0.00,,FEW060,0.00,VWS V14.01,2013-08-14 19:58:00,
2013-08-14 15:03:00,101.2,61.1,29.93,SSW,207,0.0,4.0,27,0.00,,FEW060,0.00,VWS V14.01,2013-08-14 20:03:00,
2013-08-14 15:08:00,100.7,61.7,29.93,SSE,150,0.0,5.0,28,0.00,,FEW060,0.00,VWS V14.01,2013-08-14 20:08:00,
2013-08-14 15:13:00,101.5,62.3,29.93,SSW,192,2.0,2.0,28,0.00,,FEW060,0.00,VWS V14.01,2013-08-14 20:13:00,
2013-08-14 15:18:00,101.7,62.5,29.92,SW,234,0.0,5.0,28,0.00,,FEW060,0.00,VWS V14.01,2013-08-14 20:18:00,
2013-08-14 15:23:00,101.2,62.1,29.92,WNW,300,0.0,2.0,28,0.00,,FEW060,0.00,VWS V14.01,2013-08-14 20:23:00,
2013-08-14 15:28:00,101.0,61.9,29.92,WNW,300,0.0,2.0,28,0.00,,FEW060,0.00,VWS V14.01,2013-08-14 20:28:00,
2013-08-14 15:33:00,101.5,62.3,29.91,WNW,299,0.0,4.0,28,0.00,,FEW060,0.00,VWS V14.01,2013-08-14 20:33:00,
2013-08-14 15:38:00,102.3,62.0,29.91,WNW,291,0.0,6.0,27,0.00,,FEW060,0.00,VWS V14.01,2013-08-14 20:38:00,
2013-08-14 15:43:00,102.3,62.0,29.91,South,183,1.0,3.0,27,0.00,,FEW060,0.00,VWS V14.01,2013-08-14 20:43:00,
2013-08-14 15:48:00,102.3,62.0,29.91,South,183,0.0,3.0,27,0.00,,FEW060,0.00,VWS V14.01,2013-08-14 20:48:00,
2013-08-14 15:53:00,102.5,61.1,29.91,SSE,163,3.0,5.0,26,0.00,,FEW060,0.00,VWS V14.01,2013-08-14 20:53:00,
2013-08-14 15:58:00,101.7,61.5,29.91,ENE,76,0.0,9.0,27,0.00,,CLR,0.00,VWS V14.01,2013-08-14 20:58:00,
2013-08-14 16:04:00,102.0,60.7,29.90,SSE,165,1.0,5.0,26,0.00,,CLR,0.00,VWS V14.01,2013-08-14 21:04:00,
2013-08-14 16:09:00,102.0,60.7,29.90,South,179,1.0,5.0,26,0.00,,CLR,0.00,VWS V14.01,2013-08-14 21:09:00,
2013-08-14 16:14:00,102.3,60.9,29.90,NW,307,5.0,11.0,26,0.00,,CLR,0.00,VWS V14.01,2013-08-14 21:14:00,
2013-08-14 16:18:00,102.0,60.7,29.90,NNE,22,0.0,11.0,26,0.00,,CLR,0.00,VWS V14.01,2013-08-14 21:18:00,
2013-08-14 16:23:00,103.3,59.5,29.90,NNE,22,0.0,0.0,24,0.00,,CLR,0.00,VWS V14.01,2013-08-14 21:23:00,
2013-08-14 16:28:00,103.8,59.9,29.90,NNW,335,0.0,4.0,24,0.00,,CLR,0.00,VWS V14.01,2013-08-14 21:28:00,
2013-08-14 16:34:00,103.8,59.9,29.89,NNW,335,0.0,0.0,24,0.00,,CLR,0.00,VWS V14.01,2013-08-14 21:34:00,
2013-08-14 16:39:00,104.1,59.0,29.89,East,90,0.0,2.0,23,0.00,,CLR,0.00,VWS V14.01,2013-08-14 21:39:00,
2013-08-14 16:44:00,103.6,58.6,29.89,SE,132,5.0,6.0,23,0.00,,CLR,0.00,VWS V14.01,2013-08-14 21:44:00,
2013-08-14 16:49:00,103.6,58.6,29.88,SW,235,0.0,7.0,23,0.00,,CLR,0.00,VWS V14.01,2013-08-14 21:49:00,
2013-08-14 16:54:00,103.3,58.3,29.88,South,186,0.0,5.0,23,0.00,,CLR,0.00,VWS V14.01,2013-08-14 21:54:00,
2013-08-14 16:59:00,103.1,58.2,29.88,South,190,0.0,5.0,23,0.00,,FEW060,0.00,VWS V14.01,2013-08-14 21:59:00,
2013-08-14 17:04:00,103.6,58.6,29.88,SSE,166,0.0,0.0,23,0.00,,FEW060,0.00,VWS V14.01,2013-08-14 22:04:00,
2013-08-14 17:09:00,104.4,58.0,29.88,East,93,4.0,4.0,22,0.00,,FEW060,0.00,VWS V14.01,2013-08-14 22:09:00,
2013-08-14 17:14:00,104.1,56.5,29.88,SSE,159,0.0,1.0,21,0.00,,FEW060,0.00,VWS V14.01,2013-08-14 22:14:00,
2013-08-14 17:19:00,104.4,56.7,29.88,South,175,3.0,4.0,21,0.00,,FEW060,0.00,VWS V14.01,2013-08-14 22:19:00,
2013-08-14 17:24:00,103.8,56.2,29.88,SSE,166,0.0,1.0,21,0.00,,FEW060,0.00,VWS V14.01,2013-08-14 22:24:00,
2013-08-14 17:29:00,104.1,56.5,29.88,ESE,109,0.0,4.0,21,0.00,,FEW060,0.00,VWS V14.01,2013-08-14 22:29:00,
2013-08-14 17:34:00,103.8,56.2,29.88,ESE,113,0.0,3.0,21,0.00,,FEW060,0.00,VWS V14.01,2013-08-14 22:34:00,
2013-08-14 17:39:00,103.6,56.0,29.88,ESE,115,0.0,3.0,21,0.00,,FEW060,0.00,VWS V14.01,2013-08-14 22:39:00,
2013-08-14 17:44:00,103.6,54.7,29.88,SE,142,0.0,4.0,20,0.00,,FEW060,0.00,VWS V14.01,2013-08-14 22:44:00,
2013-08-14 17:49:00,103.3,54.5,29.88,SSE,148,0.0,4.0,20,0.00,,FEW060,0.00,VWS V14.01,2013-08-14 22:49:00,
2013-08-14 17:54:00,103.3,54.5,29.88,ESE,103,2.0,4.0,20,0.00,,FEW060,0.00,VWS V14.01,2013-08-14 22:54:00,
2013-08-14 17:59:00,102.8,55.4,29.88,South,178,0.0,5.0,21,0.00,,CLR,0.00,VWS V14.01,2013-08-14 22:59:00,
2013-08-14 18:04:00,103.1,54.3,29.87,SSE,154,2.0,4.0,20,0.00,,CLR,0.00,VWS V14.01,2013-08-14 23:04:00,
2013-08-14 18:09:00,102.8,54.1,29.87,ESE,102,2.0,5.0,20,0.00,,CLR,0.00,VWS V14.01,2013-08-14 23:09:00,
2013-08-14 18:14:00,102.5,53.8,29.87,SE,140,0.0,5.0,20,0.00,,CLR,0.00,VWS V14.01,2013-08-14 23:14:00,
2013-08-14 18:19:00,102.5,53.8,29.87,SE,128,0.0,5.0,20,0.00,,CLR,0.00,VWS V14.01,2013-08-14 23:19:00,
2013-08-14 18:24:00,102.5,53.8,29.87,SE,128,0.0,0.0,20,0.00,,CLR,0.00,VWS V14.01,2013-08-14 23:24:00,
2013-08-14 18:29:00,102.8,52.7,29.87,SE,129,0.0,4.0,19,0.00,,CLR,0.00,VWS V14.01,2013-08-14 23:29:00,
2013-08-14 18:34:00,102.8,52.7,29.87,ESE,123,0.0,1.0,19,0.00,,CLR,0.00,VWS V14.01,2013-08-14 23:34:00,
2013-08-14 18:39:00,102.5,52.4,29.87,ESE,113,4.0,4.0,19,0.00,,CLR,0.00,VWS V14.01,2013-08-14 23:39:00,
2013-08-14 18:44:00,102.5,51.0,29.87,ESE,113,0.0,0.0,18,0.00,,CLR,0.00,VWS V14.01,2013-08-14 23:44:00,
2013-08-14 18:49:00,102.8,52.7,29.86,ESE,113,0.0,0.0,19,0.00,,CLR,0.00,VWS V14.01,2013-08-14 23:49:00,
2013-08-14 18:54:00,103.1,51.4,29.86,ESE,113,0.0,0.0,18,0.00,,CLR,0.00,VWS V14.01,2013-08-14 23:54:00,
2013-08-14 18:59:00,103.1,51.4,29.86,ESE,113,0.0,0.0,18,0.00,,CLR,0.00,VWS V14.01,2013-08-14 23:59:00,
2013-08-14 19:04:00,102.3,59.8,29.86,NNW,346,12.0,12.0,25,0.00,,CLR,0.00,VWS V14.01,2013-08-15 00:04:00,
2013-08-14 19:09:00,97.1,67.3,29.86,North,349,5.0,16.0,38,0.00,,CLR,0.00,VWS V14.01,2013-08-15 00:09:00,
2013-08-14 19:14:00,94.5,66.5,29.86,NNW,346,9.0,16.0,40,0.00,,CLR,0.00,VWS V14.01,2013-08-15 00:14:00,
2013-08-14 19:19:00,92.9,67.8,29.87,NNE,26,1.0,16.0,44,0.00,,CLR,0.00,VWS V14.01,2013-08-15 00:19:00,
2013-08-14 19:24:00,92.3,67.9,29.87,NE,34,10.0,10.0,45,0.00,,CLR,0.00,VWS V14.01,2013-08-15 00:24:00,
2013-08-14 19:29:00,92.1,67.7,29.87,NNE,31,5.0,11.0,45,0.00,,CLR,0.00,VWS V14.01,2013-08-15 00:29:00,
2013-08-14 19:34:00,91.6,67.9,29.88,NNW,341,3.0,10.0,46,0.00,,CLR,0.00,VWS V14.01,2013-08-15 00:34:00,
2013-08-14 19:39:00,91.4,68.3,29.88,NNE,26,5.0,10.0,47,0.00,,CLR,0.00,VWS V14.01,2013-08-15 00:39:00,
2013-08-14 19:44:00,91.0,68.0,29.88,ENE,59,3.0,10.0,47,0.00,,CLR,0.00,VWS V14.01,2013-08-15 00:44:00,
2013-08-14 19:49:00,91.0,68.6,29.88,North,11,5.0,12.0,48,0.00,,CLR,0.00,VWS V14.01,2013-08-15 00:49:00,
2013-08-14 19:54:00,90.7,68.3,29.88,NNE,22,2.0,7.0,48,0.00,,CLR,0.00,VWS V14.01,2013-08-15 00:54:00,
2013-08-14 19:59:00,90.5,68.2,29.88,North,360,3.0,10.0,48,0.00,,CLR,0.00,VWS V14.01,2013-08-15 00:59:00,
2013-08-14 20:04:00,90.5,68.2,29.89,North,355,0.0,10.0,48,0.00,,CLR,0.00,VWS V14.01,2013-08-15 01:04:00,
2013-08-14 20:09:00,90.3,68.0,29.89,NNE,15,11.0,13.0,48,0.00,,CLR,0.00,VWS V14.01,2013-08-15 01:09:00,
2013-08-14 20:14:00,89.9,68.2,29.89,North,11,3.0,12.0,49,0.00,,CLR,0.00,VWS V14.01,2013-08-15 01:14:00,
2013-08-14 20:19:00,89.7,68.0,29.89,North,355,9.0,13.0,49,0.00,,CLR,0.00,VWS V14.01,2013-08-15 01:19:00,
2013-08-14 20:24:00,89.5,68.4,29.89,NNE,20,11.0,12.0,50,0.00,,CLR,0.00,VWS V14.01,2013-08-15 01:24:00,
2013-08-14 20:29:00,89.5,68.4,29.89,NW,316,5.0,12.0,50,0.00,,CLR,0.00,VWS V14.01,2013-08-15 01:29:00,
2013-08-14 20:34:00,89.3,68.2,29.90,NE,40,4.0,9.0,50,0.00,,CLR,0.00,VWS V14.01,2013-08-15 01:34:00,
2013-08-14 20:39:00,88.8,67.8,29.90,North,5,3.0,12.0,50,0.00,,CLR,0.00,VWS V14.01,2013-08-15 01:39:00,
2013-08-14 20:44:00,88.8,67.8,29.90,NNE,27,3.0,7.0,50,0.00,,CLR,0.00,VWS V14.01,2013-08-15 01:44:00,
2013-08-14 20:49:00,88.6,68.2,29.91,East,80,0.0,10.0,51,0.00,,CLR,0.00,VWS V14.01,2013-08-15 01:49:00,
2013-08-14 20:54:00,88.4,68.0,29.91,NW,323,9.0,10.0,51,0.00,,CLR,0.00,VWS V14.01,2013-08-15 01:54:00,
2013-08-14 20:59:00,88.2,67.8,29.91,North,355,6.0,12.0,51,0.00,,CLR,0.00,VWS V14.01,2013-08-15 01:59:00,
2013-08-14 21:04:00,87.8,67.4,29.92,North,11,3.0,12.0,51,0.00,,CLR,0.00,VWS V14.01,2013-08-15 02:04:00,
2013-08-14 21:09:00,87.6,67.8,29.92,NW,313,10.0,12.0,52,0.00,,CLR,0.00,VWS V14.01,2013-08-15 02:09:00,
2013-08-14 21:14:00,87.4,67.6,29.92,NE,49,3.0,9.0,52,0.00,,CLR,0.00,VWS V14.01,2013-08-15 02:14:00,
2013-08-14 21:19:00,87.2,68.0,29.92,North,355,4.0,9.0,53,0.00,,CLR,0.00,VWS V14.01,2013-08-15 02:19:00,
2013-08-14 21:24:00,87.0,67.8,29.92,NNE,14,3.0,12.0,53,0.00,,CLR,0.00,VWS V14.01,2013-08-15 02:24:00,
2013-08-14 21:29:00,87.0,67.8,29.92,North,360,6.0,12.0,53,0.00,,CLR,0.00,VWS V14.01,2013-08-15 02:29:00,
2013-08-14 21:34:00,86.7,67.5,29.93,NNE,28,14.0,14.0,53,0.00,,CLR,0.00,VWS V14.01,2013-08-15 02:34:00,
2013-08-14 21:39:00,86.5,67.9,29.93,North,355,2.0,14.0,54,0.00,,CLR,0.00,VWS V14.01,2013-08-15 02:39:00,
2013-08-14 21:44:00,86.3,67.7,29.93,NW,317,2.0,5.0,54,0.00,,CLR,0.00,VWS V14.01,2013-08-15 02:44:00,
2013-08-14 21:49:00,86.3,67.7,29.95,ESE,119,0.0,5.0,54,0.00,,CLR,0.00,VWS V14.01,2013-08-15 02:49:00,
2013-08-14 21:54:00,86.3,68.2,29.95,East,98,0.0,7.0,55,0.00,,CLR,0.00,VWS V14.01,2013-08-15 02:54:00,
2013-08-14 21:59:00,85.9,67.9,29.95,North,11,2.0,9.0,55,0.00,,FEW100,0.00,VWS V14.01,2013-08-15 02:59:00,
2013-08-14 22:04:00,85.9,68.4,29.95,North,5,6.0,12.0,56,0.00,,FEW100,0.00,VWS V14.01,2013-08-15 03:04:00,
2013-08-14 22:09:00,85.7,68.2,29.95,ESE,102,0.0,12.0,56,0.00,,FEW100,0.00,VWS V14.01,2013-08-15 03:09:00,
2013-08-14 22:14:00,85.7,68.2,29.95,NE,51,0.0,0.0,56,0.00,,FEW100,0.00,VWS V14.01,2013-08-15 03:14:00,
2013-08-14 22:19:00,85.7,68.2,29.96,East,96,0.0,3.0,56,0.00,,FEW100,0.00,VWS V14.01,2013-08-15 03:19:00,
2013-08-14 22:24:00,85.9,68.4,29.96,East,92,0.0,1.0,56,0.00,,FEW100,0.00,VWS V14.01,2013-08-15 03:24:00,
2013-08-14 22:29:00,85.9,67.9,29.96,East,93,3.0,6.0,55,0.00,,FEW100,0.00,VWS V14.01,2013-08-15 03:29:00,
2013-08-14 22:34:00,86.3,68.2,29.96,East,92,0.0,5.0,55,0.00,,FEW100,0.00,VWS V14.01,2013-08-15 03:34:00,
2013-08-14 22:39:00,86.3,67.7,29.96,SE,131,1.0,9.0,54,0.00,,FEW100,0.00,VWS V14.01,2013-08-15 03:39:00,
2013-08-14 22:44:00,86.5,67.9,29.96,ENE,66,0.0,8.0,54,0.00,,FEW100,0.00,VWS V14.01,2013-08-15 03:44:00,
2013-08-14 22:49:00,86.3,67.7,29.96,SSE,159,5.0,11.0,54,0.00,,FEW100,0.00,VWS V14.01,2013-08-15 03:49:00,
2013-08-14 22:54:00,86.3,67.7,29.96,ESE,111,0.0,9.0,54,0.00,,FEW100,0.00,VWS V14.01,2013-08-15 03:54:00,
2013-08-14 22:59:00,86.1,67.5,29.96,SE,137,0.0,9.0,54,0.00,,BKN100,0.00,VWS V14.01,2013-08-15 03:59:00,
2013-08-14 23:01:00,86.1,67.5,29.96,ESE,105,7.0,11.0,54,0.00,,BKN100,0.00,VWS V14.01,2013-08-15 04:01:00,
2013-08-14 23:06:00,85.9,67.9,29.96,ESE,107,3.0,12.0,55,0.00,,BKN100,0.00,VWS V14.01,2013-08-15 04:06:00,
2013-08-14 23:11:00,85.9,67.9,29.96,ESE,111,3.0,12.0,55,0.00,,BKN100,0.00,VWS V14.01,2013-08-15 04:11:00,
2013-08-14 23:16:00,85.9,67.9,29.96,East,89,0.0,6.0,55,0.00,,BKN100,0.00,VWS V14.01,2013-08-15 04:16:00,
2013-08-14 23:21:00,85.7,68.2,29.96,East,90,0.0,10.0,56,0.00,,BKN100,0.00,VWS V14.01,2013-08-15 04:21:00,
2013-08-14 23:26:00,85.5,68.0,29.96,ENE,71,0.0,9.0,56,0.00,,BKN100,0.00,VWS V14.01,2013-08-15 04:26:00,
2013-08-14 23:31:00,85.3,68.3,29.97,ESE,105,0.0,9.0,57,0.00,,BKN100,0.00,VWS V14.01,2013-08-15 04:31:00,
2013-08-14 23:36:00,85.3,68.3,29.97,ESE,108,3.0,3.0,57,0.00,,BKN100,0.00,VWS V14.01,2013-08-15 04:36:00,
2013-08-14 23:41:00,85.1,68.2,29.97,East,84,0.0,5.0,57,0.00,,BKN100,0.00,VWS V14.01,2013-08-15 04:41:00,
2013-08-14 23:46:00,84.9,68.5,29.97,ESE,104,2.0,6.0,58,0.00,,BKN100,0.00,VWS V14.01,2013-08-15 04:46:00,
2013-08-14 23:51:00,84.9,68.5,29.97,ENE,62,2.0,7.0,58,0.00,,BKN100,0.00,VWS V14.01,2013-08-15 04:51:00,
2013-08-14 23:56:00,84.7,68.3,29.97,ESE,105,0.0,5.0,58,0.00,,CLR,0.00,VWS V14.01,2013-08-15 04:56:00,